TimeCST,TemperatureF,Dew PointF,Humidity,Sea Level PressureIn,VisibilityMPH,Wind Direction,Wind SpeedMPH,Gust SpeedMPH,PrecipitationIn,Events,Conditions,WindDirDegrees,DateUTC
12:52 AM,12.0,7.0,80,30.18,10.0,SW,3.5,-,N/A,,Clear,230,2013-01-04 06:52:00
1:52 AM,10.0,5.0,80,30.18,10.0,SW,5.8,-,N/A,,Clear,230,2013-01-04 07:52:00
2:52 AM,9.0,6.1,88,30.18,10.0,South,3.5,-,N/A,,Clear,180,2013-01-04 08:52:00
3:52 AM,7.0,5.0,92,30.19,10.0,SW,3.5,-,N/A,,Clear,220,2013-01-04 09:52:00
4:52 AM,6.1,5.0,95,30.18,10.0,SSW,3.5,-,N/A,,Clear,210,2013-01-04 10:52:00
5:52 AM,3.9,1.9,91,30.20,10.0,SSW,4.6,-,N/A,,Clear,210,2013-01-04 11:52:00
6:52 AM,6.1,3.9,91,30.19,10.0,Calm,Calm,-,N/A,,Clear,0,2013-01-04 12:52:00
7:52 AM,5.0,1.9,87,30.19,10.0,Calm,Calm,-,N/A,,Clear,0,2013-01-04 13:52:00
8:52 AM,5.0,3.0,92,30.17,10.0,Calm,Calm,-,N/A,,Clear,0,2013-01-04 14:52:00
9:52 AM,5.0,3.9,95,30.18,10.0,Calm,Calm,-,N/A,,Clear,0,2013-01-04 15:52:00
10:52 AM,10.9,7.0,84,30.16,10.0,Calm,Calm,-,N/A,,Clear,0,2013-01-04 16:52:00
11:52 AM,12.9,9.0,84,30.16,10.0,SW,3.5,-,N/A,,Clear,230,2013-01-04 17:52:00
12:52 PM,18.0,10.0,71,30.13,10.0,SSW,4.6,-,N/A,,Clear,210,2013-01-04 18:52:00
1:52 PM,19.0,10.9,71,30.09,10.0,South,3.5,-,N/A,,Clear,180,2013-01-04 19:52:00
2:52 PM,21.0,10.9,65,30.08,10.0,SSW,6.9,-,N/A,,Clear,200,2013-01-04 20:52:00
3:52 PM,19.4,12.2,74,29.97,10.0,SW,5.8,-,N/A,,Clear,230,2013-01-04 21:52:00
4:52 PM,18.0,10.9,74,30.09,10.0,SSW,3.5,-,N/A,,Clear,200,2013-01-04 22:52:00
5:52 PM,17.1,10.9,77,30.09,10.0,Calm,Calm,-,N/A,,Clear,0,2013-01-04 23:52:00
6:52 PM,14.0,10.0,84,30.08,10.0,Calm,Calm,-,N/A,,Clear,0,2013-01-05 00:52:00
7:52 PM,8.1,6.1,92,30.07,10.0,Calm,Calm,-,N/A,,Clear,0,2013-01-05 01:52:00
8:52 PM,15.1,10.0,80,30.05,10.0,Calm,Calm,-,N/A,,Clear,0,2013-01-05 02:52:00
9:52 PM,12.0,10.0,92,30.04,10.0,Calm,Calm,-,N/A,,Clear,0,2013-01-05 03:52:00
10:52 PM,10.9,9.0,92,30.02,10.0,SE,4.6,-,N/A,,Clear,140,2013-01-05 04:52:00
11:52 PM,21.0,16.0,81,30.01,10.0,West,12.7,-,N/A,,Clear,260,2013-01-05 05:52:00